Regional Weather Roundup
Issued by NWS

Home | Current Version | Previous Version | Text Only | Print | Product List | Glossary Off
Versions: 1 2 3 4 5 6 7 8 9 10 11 12 13 14 15 16 17 18 19 20 21 22 23 24 25 26 27 28 29 30 31 32 33 34 35 36 37 38 39 40 41 42 43 44 45 46 47 48 49 50

000
ASUS45 KABQ 030310
RWRNM
NEW MEXICO REGIONAL WEATHER ROUNDUP
NATIONAL WEATHER SERVICE ALBUQUERQUE NM
900 PM MDT THU JUL 02 2015

NOTE: "FAIR" MEANS FEW OR NO CLOUDS BELOW 12,000 FEET AGL WITH NO
       SIGNIFICANT WEATHER OR OBSTRUCTIONS TO VISION.

      THIS PRODUCT IS RELEASED AS TWO VERSIONS.  ONE VERSION NEAR
      THE TOP OF THE HOUR CONTAINING PRELIMINARY DATA FROM ALBUQUERQUE
      AND OTHER STATIONS.  A FINAL VERSION WITH ADDITIONAL DATA IS
      ISSUED ABOUT 10 MINUTES AFTER THE HOUR.

NMZ501-503-504-510>518-030400-
NORTHWEST PLATEAU/NORTHCENTRAL MOUNTAINS

CITY           SKY/WX    TMP DP  RH WIND       PRES   REMARKS
FARMINGTON     CLEAR     72  58  61 E15       30.08F
LOS ALAMOS     CLOUDY    63  52  68 W12       30.31S
SANTA FE       CLOUDY    64  55  72 S6        30.23S
TAOS           CLOUDY    59  48  67 N12       30.36R
ANGEL FIRE     HVY RAIN  54  52  93 S5        30.46R

$$
NMZ402-403-502-505>509-030400-
WESTCENTRAL MOUNTAINS/SOUTHWEST MOUNTAINS

CITY           SKY/WX    TMP DP  RH WIND       PRES   REMARKS
GALLUP         CLOUDY    72  64  76 N3        30.16R
GRANTS         TSTM      64  59  85 S7G17     30.25R
SILVER CITY      N/A     75  57  53 N8        30.07R

$$
NMZ407-409-411-412-030400-
SOUTHERN DESERTS

CITY           SKY/WX    TMP DP  RH WIND       PRES   REMARKS
LORDSBURG      FAIR      86  46  25 N15G25    29.97R
DEMING         PTCLDY    89  50  26 NW6       29.94R
LAS CRUCES     MOCLDY    92  38  15 SE5       29.95S
HOLLOMAN AFB   MOCLDY    89  50  25 E1        29.92R
ALAMOGORDO     MOCLDY    90  50  25 E9        29.93R
T OR C         CLOUDY    85  51  31 NE28G38   30.02R

$$
NMZ519>523-030400-
CENTRAL VALLEYS/CENTRAL HIGHLANDS

CITY           SKY/WX    TMP DP  RH WIND       PRES   REMARKS
ALBUQUERQUE    CLOUDY    73  61  65 E14G20    30.18R
DOUBLE EAGLE   MOCLDY    68  57  68 S7        30.21R
MORIARTY ARPT    N/A     68  56  67 N8G17     30.25R
CLINES CORNERS CLOUDY    66  57  72 NE10      30.28R
BELEN          DRIZZLE   71  59  65 NE8       30.18R
SOCORRO        RAIN      66  62  86 NE5       30.14S

$$
NMZ524>526-539-540-030400-
SOUTHCENTRAL MOUNTAINS

CITY           SKY/WX    TMP DP  RH WIND       PRES   REMARKS
RUIDOSO        TSTM      57  57 100 E13       30.32R

$$
NMZ527>531-030400-
NORTHEAST HIGHLANDS/NORTHEAST PLAINS

CITY           SKY/WX    TMP DP  RH WIND       PRES   REMARKS
LAS VEGAS      CLOUDY    59  56  89 NE14      30.31R
RATON          CLOUDY    67  60  78 W3        30.24R
CLAYTON        CLOUDY    71  62  73 N7        30.13S

$$
NMZ532>537-030400-
EASTCENTRAL PLAINS

CITY           SKY/WX    TMP DP  RH WIND       PRES   REMARKS
TUCUMCARI      LGT RAIN  81  60  48 SE8       30.03R
CANNON AFB     CLOUDY    75  62  65 S3        30.07R
CLOVIS AIRPORT CLOUDY    75  61  60 S7          N/A

$$
NMZ028-029-538-030400-
SOUTHEAST PLAINS

CITY           SKY/WX    TMP DP  RH WIND       PRES   REMARKS
ROSWELL        CLOUDY    79  59  50 NE6       29.99S
ARTESIA        CLOUDY    82  57  42 E12       29.98R
CARLSBAD       MOCLDY    86  55  34 SE5       29.95R
HOBBS          CLOUDY    81  57  44 E3        30.01S


$$



USA.gov is the U.S. government's official web portal to all federal, state and local government web resources and services.